| time (UTC) | temp F | wind direction | speed knots | gust knots | rain 1hr in | rain 24hr in | rain mn in | humidity % | barometer mb |
| 20260905024607 | 62 | 326 | 2.6 | 5.2 | 0.00 | 0.00 | 0.00 | 50 | 1014.8 |
| 20260905023105 | 62 | 0 | 0.0 | 3.5 | 0.00 | 0.00 | 0.00 | 48 | 1014.3 |
| 20260905021553 | 65 | 326 | 1.7 | 7.8 | 0.00 | 0.00 | 0.00 | 45 | 1014.1 |
| 20260905020109 | 66 | 322 | 3.5 | 7.8 | 0.00 | 0.00 | 0.00 | 43 | 1014.0 |
| 20260905014559 | 66 | 321 | 5.2 | 13.0 | 0.00 | 0.00 | 0.00 | 42 | 1013.5 |
| 20260905013053 | 66 | 344 | 9.6 | 15.6 | 0.00 | 0.00 | 0.00 | 42 | 1012.7 |
| 20260905011621 | 67 | 352 | 7.0 | 17.4 | 0.00 | 0.00 | 0.00 | 41 | 1012.6 |
| 20260905010059 | 68 | 331 | 11.3 | 17.4 | 0.00 | 0.00 | 0.00 | 39 | 1012.1 |
| 20260905004600 | 69 | 338 | 12.2 | 18.2 | 0.00 | 0.00 | 0.00 | 39 | 1012.3 |
| 20260905003101 | 69 | 326 | 13.0 | 19.1 | 0.00 | 0.00 | 0.00 | 38 | 1012.3 |
| 20260905001600 | 70 | 319 | 12.2 | 20.0 | 0.00 | 0.00 | 0.00 | 37 | 1012.5 |
| 20260904234558 | 70 | 352 | 10.4 | 15.6 | 0.00 | 0.00 | 0.00 | 37 | 1012.8 |
| 20260904233102 | 72 | 352 | 10.4 | 16.5 | 0.00 | 0.00 | 0.00 | 34 | 1013.0 |
| 20260904231552 | 73 | 340 | 8.7 | 18.2 | 0.00 | 0.00 | 0.00 | 34 | 1012.8 |
| 20260904230057 | 72 | 333 | 13.9 | 20.9 | 0.00 | 0.00 | 0.00 | 34 | 1012.7 |
| 20260904224604 | 72 | 319 | 7.0 | 16.5 | 0.00 | 0.00 | 0.00 | 35 | 1012.6 |
| 20260904223104 | 72 | 307 | 10.4 | 16.5 | 0.00 | 0.00 | 0.00 | 35 | 1012.6 |
| 20260904221607 | 72 | 324 | 10.4 | 17.4 | 0.00 | 0.00 | 0.00 | 34 | 1012.4 |
| 20260904214552 | 72 | 325 | 9.6 | 15.6 | 0.00 | 0.00 | 0.00 | 35 | 1012.1 |
| 20260904213052 | 71 | 282 | 8.7 | 19.1 | 0.00 | 0.00 | 0.00 | 36 | 1012.1 |
| 20260904211558 | 71 | 327 | 11.3 | 17.4 | 0.00 | 0.00 | 0.00 | 35 | 1011.8 |
| 20260904210055 | 71 | 284 | 11.3 | 18.2 | 0.00 | 0.00 | 0.00 | 36 | 1011.7 |
| 20260904204551 | 70 | 311 | 11.3 | 19.1 | 0.00 | 0.00 | 0.00 | 36 | 1011.6 |
| 20260904203059 | 71 | 287 | 9.6 | 21.7 | 0.00 | 0.00 | 0.00 | 37 | 1011.3 |
| 20260904201614 | 70 | 312 | 11.3 | 20.0 | 0.00 | 0.00 | 0.00 | 38 | 1011.2 |
| 20260904200121 | 70 | 294 | 8.7 | 18.2 | 0.00 | 0.00 | 0.00 | 37 | 1011.0 |
| 20260904194610 | 70 | 311 | 8.7 | 16.5 | 0.00 | 0.00 | 0.00 | 39 | 1010.8 |
| 20260904193106 | 70 | 286 | 9.6 | 18.2 | 0.00 | 0.00 | 0.00 | 38 | 1010.5 |
| 20260904191556 | 70 | 282 | 8.7 | 13.9 | 0.00 | 0.00 | 0.00 | 39 | 1010.1 |
| 20260904190110 | 67 | 315 | 9.6 | 17.4 | 0.00 | 0.00 | 0.00 | 41 | 1009.9 |
| 20260904184600 | 68 | 293 | 9.6 | 16.5 | 0.00 | 0.00 | 0.00 | 40 | 1010.0 |
| 20260904183053 | 67 | 286 | 7.8 | 14.8 | 0.00 | 0.00 | 0.00 | 42 | 1009.9 |
| 20260904181550 | 65 | 289 | 8.7 | 13.0 | 0.00 | 0.00 | 0.00 | 47 | 1009.7 |
| 20260904180059 | 63 | 285 | 7.0 | 11.3 | 0.00 | 0.00 | 0.00 | 51 | 1009.7 |
| 20260904174554 | 61 | 281 | 6.1 | 11.3 | 0.00 | 0.00 | 0.00 | 54 | 1009.6 |
| 20260904173130 | 61 | 288 | 7.0 | 11.3 | 0.00 | 0.00 | 0.00 | 53 | 1009.5 |
| 20260904171608 | 61 | 279 | 3.5 | 11.3 | 0.00 | 0.00 | 0.00 | 55 | 1009.3 |
| 20260904170055 | 62 | 273 | 3.5 | 7.0 | 0.00 | 0.00 | 0.00 | 50 | 1009.1 |
| 20260904164557 | 61 | 278 | 2.6 | 6.1 | 0.00 | 0.00 | 0.00 | 49 | 1008.7 |
| 20260904163100 | 61 | 273 | 1.7 | 5.2 | 0.00 | 0.00 | 0.00 | 50 | 1008.8 |
| 20260904161555 | 60 | 271 | 0.0 | 3.5 | 0.00 | 0.00 | 0.00 | 52 | 1008.7 |
| 20260904160054 | 60 | 0 | 1.7 | 7.8 | 0.00 | 0.00 | 0.00 | 53 | 1008.6 |
| 20260904154552 | 59 | 267 | 1.7 | 8.7 | 0.00 | 0.00 | 0.00 | 55 | 1008.6 |
| 20260904153102 | 58 | 262 | 7.0 | 13.0 | 0.00 | 0.00 | 0.00 | 56 | 1008.5 |
| 20260904151606 | 63 | 179 | 5.2 | 10.4 | 0.00 | 0.00 | 0.00 | 45 | 1008.0 |
| 20260904150115 | 62 | 74 | 1.7 | 6.1 | 0.00 | 0.00 | 0.00 | 48 | 1007.6 |
| 20260904144602 | 62 | 71 | 6.1 | 9.6 | 0.00 | 0.00 | 0.00 | 47 | 1007.1 |
| 20260904143108 | 62 | 81 | 6.1 | 10.4 | 0.00 | 0.00 | 0.00 | 47 | 1007.0 |
| 20260904141614 | 61 | 51 | 3.5 | 7.8 | 0.00 | 0.00 | 0.00 | 50 | 1007.1 |
| 20260904140107 | 59 | 58 | 8.7 | 11.3 | 0.00 | 0.00 | 0.00 | 53 | 1006.4 |
| 20260904134559 | 57 | 51 | 0.9 | 7.8 | 0.00 | 0.00 | 0.00 | 54 | 1007.3 |
| 20260904133057 | 55 | 38 | 1.7 | 7.8 | 0.00 | 0.00 | 0.00 | 60 | 1007.1 |
| 20260904131557 | 55 | 39 | 4.3 | 7.0 | 0.00 | 0.00 | 0.00 | 59 | 1006.9 |
| 20260904130106 | 55 | 39 | 2.6 | 5.2 | 0.00 | 0.00 | 0.00 | 59 | 1007.2 |
| 20260904124558 | 54 | 0 | 0.0 | 7.0 | 0.00 | 0.00 | 0.00 | 59 | 1006.9 |
| 20260904123057 | 53 | 39 | 0.0 | 1.7 | 0.00 | 0.00 | 0.00 | 61 | 1006.5 |
| 20260904121556 | 54 | 39 | 2.6 | 4.3 | 0.00 | 0.00 | 0.00 | 61 | 1006.4 |
| 20260904120108 | 55 | 39 | 2.6 | 8.7 | 0.00 | 0.00 | 0.00 | 59 | 1006.6 |
| 20260904114559 | 55 | 40 | 5.2 | 8.7 | 0.00 | 0.01 | 0.00 | 58 | 1006.7 |
| 20260904113055 | 55 | 39 | 5.2 | 8.7 | 0.00 | 0.01 | 0.00 | 58 | 1006.6 |
| 20260904111554 | 56 | 42 | 6.1 | 9.6 | 0.00 | 0.01 | 0.00 | 57 | 1006.7 |
| 20260904110050 | 56 | 46 | 7.0 | 10.4 | 0.00 | 0.01 | 0.00 | 56 | 1006.7 |
| 20260904104559 | 56 | 52 | 7.8 | 11.3 | 0.00 | 0.01 | 0.00 | 56 | 1007.0 |
| 20260904103054 | 56 | 53 | 8.7 | 13.0 | 0.00 | 0.01 | 0.00 | 55 | 1007.1 |
| 20260904101553 | 55 | 44 | 7.8 | 10.4 | 0.00 | 0.01 | 0.00 | 58 | 1007.2 |
| 20260904100058 | 53 | 5 | 2.6 | 5.2 | 0.00 | 0.01 | 0.00 | 64 | 1007.6 |
| 20260904094602 | 54 | 5 | 5.2 | 7.8 | 0.00 | 0.02 | 0.00 | 62 | 1007.5 |
| 20260904093103 | 53 | 349 | 3.5 | 7.0 | 0.00 | 0.02 | 0.00 | 66 | 1007.6 |
| 20260904091558 | 52 | 346 | 1.7 | 4.3 | 0.00 | 0.02 | 0.00 | 68 | 1007.8 |
| 20260904090058 | 50 | 346 | 1.7 | 3.5 | 0.00 | 0.02 | 0.00 | 71 | 1007.8 |
| 20260904084558 | 51 | 346 | 1.7 | 4.3 | 0.00 | 0.02 | 0.00 | 69 | 1007.9 |
| 20260904083056 | 52 | 346 | 3.5 | 5.2 | 0.00 | 0.02 | 0.00 | 69 | 1008.1 |
| 20260904081559 | 50 | 346 | 2.6 | 4.3 | 0.00 | 0.02 | 0.00 | 76 | 1008.1 |
| 20260904080058 | 50 | 346 | 2.6 | 4.3 | 0.00 | 0.02 | 0.00 | 76 | 1008.2 |
| 20260904074556 | 50 | 346 | 2.6 | 3.5 | 0.00 | 0.03 | 0.00 | 76 | 1008.5 |
| 20260904073052 | 51 | 346 | 2.6 | 3.5 | 0.00 | 0.03 | 0.00 | 74 | 1008.6 |
| 20260904071601 | 50 | 346 | 1.7 | 2.6 | 0.00 | 0.03 | 0.00 | 74 | 1008.9 |
| 20260904070059 | 51 | 0 | 0.0 | 0.0 | 0.00 | 0.03 | 0.00 | 73 | 1009.0 |
| 20260904064554 | 53 | 0 | 0.0 | 3.5 | 0.00 | 0.04 | 0.00 | 70 | 1009.0 |
| 20260904063056 | 54 | 346 | 2.6 | 4.3 | 0.00 | 0.04 | 0.00 | 69 | 1008.9 |
| 20260904061554 | 54 | 346 | 0.9 | 3.5 | 0.00 | 0.04 | 0.00 | 68 | 1009.1 |
| 20260904060054 | 55 | 0 | 0.0 | 3.5 | 0.00 | 0.04 | 0.00 | 66 | 1009.3 |
| 20260904054552 | 53 | 0 | 0.9 | 3.5 | 0.00 | 0.05 | 0.04 | 70 | 1009.4 |
| 20260904053101 | 53 | 346 | 0.0 | 0.0 | 0.00 | 0.05 | 0.04 | 68 | 1009.6 |
| 20260904051605 | 55 | 0 | 0.0 | 3.5 | 0.00 | 0.05 | 0.04 | 66 | 1009.9 |
| 20260904050106 | 55 | 0 | 0.0 | 0.0 | 0.00 | 0.05 | 0.04 | 63 | 1010.1 |
| 20260904044601 | 55 | 0 | 0.0 | 4.3 | 0.00 | 0.06 | 0.04 | 63 | 1010.1 |
| 20260904043055 | 55 | 0 | 0.0 | 3.5 | 0.00 | 0.06 | 0.04 | 65 | 1009.9 |
| 20260904041600 | 55 | 335 | 2.6 | 5.2 | 0.00 | 0.06 | 0.04 | 63 | 1009.6 |
| 20260904040104 | 53 | 335 | 2.6 | 4.3 | 0.00 | 0.06 | 0.04 | 68 | 1009.7 |
| 20260904034556 | 51 | 335 | 1.7 | 3.5 | 0.00 | 0.07 | 0.04 | 72 | 1009.7 |
| 20260904033055 | 52 | 335 | 1.7 | 3.5 | 0.00 | 0.07 | 0.04 | 70 | 1009.9 |
| 20260904031552 | 52 | 335 | 2.6 | 3.5 | 0.00 | 0.07 | 0.04 | 69 | 1009.7 |
| 20260904030059 | 54 | 335 | 0.9 | 2.6 | 0.00 | 0.07 | 0.04 | 65 | 1009.9 |